TimeCST,TemperatureF,Dew PointF,Humidity,Sea Level PressureIn,VisibilityMPH,Wind Direction,Wind SpeedMPH,Gust SpeedMPH,PrecipitationIn,Events,Conditions,WindDirDegrees,DateUTC
12:54 AM,21.0,15.1,78,30.33,10.0,NNE,4.6,-,N/A,,Clear,30,2013-02-21 06:54:00
1:54 AM,21.9,14.0,72,30.33,10.0,NE,3.5,-,N/A,,Clear,50,2013-02-21 07:54:00
2:54 AM,21.9,15.1,75,30.32,10.0,NE,5.8,-,N/A,,Clear,50,2013-02-21 08:54:00
3:54 AM,21.0,14.0,74,30.31,10.0,NE,6.9,-,N/A,,Clear,50,2013-02-21 09:54:00
4:54 AM,21.2,14.0,74,30.31,10.0,ENE,4.6,-,N/A,,Clear,60,2013-02-21 10:54:00
5:54 AM,21.9,15.1,75,30.33,10.0,ENE,5.8,-,N/A,,Clear,60,2013-02-21 11:54:00
6:54 AM,23.0,15.1,72,30.30,10.0,ENE,9.2,-,N/A,,Clear,70,2013-02-21 12:54:00
7:54 AM,24.1,15.1,69,30.29,10.0,ENE,11.5,18.4,N/A,,Clear,70,2013-02-21 13:54:00
8:54 AM,27.0,16.0,63,30.29,10.0,ENE,10.4,-,N/A,,Clear,70,2013-02-21 14:54:00
9:54 AM,28.9,16.0,58,30.29,10.0,ENE,8.1,-,N/A,,Partly Cloudy,70,2013-02-21 15:54:00
10:54 AM,30.9,17.1,57,30.22,10.0,ENE,12.7,16.1,N/A,,Mostly Cloudy,60,2013-02-21 16:54:00
11:54 AM,32.0,17.1,54,30.20,10.0,East,9.2,-,N/A,,Overcast,90,2013-02-21 17:54:00
12:54 PM,33.1,19.0,56,30.09,10.0,East,12.7,18.4,0.01,Rain,Light Rain,80,2013-02-21 18:54:00
1:54 PM,33.1,21.0,61,30.07,10.0,East,6.9,-,0.00,,Overcast,100,2013-02-21 19:54:00
2:54 PM,33.1,23.0,66,30.15,8.0,NE,5.8,-,0.02,Rain,Light Rain,50,2013-02-21 20:54:00
3:54 PM,32.0,26.1,79,30.15,3.0,NNE,8.1,-,0.03,Snow,Light Snow,20,2013-02-21 21:54:00
4:05 PM,32.0,26.6,80,30.14,2.0,NNE,6.9,-,0.01,Snow,Light Snow,30,2013-02-21 22:05:00
4:50 PM,32.0,26.6,80,30.09,8.0,ENE,16.1,-,0.03,,Overcast,60,2013-02-21 22:50:00
4:54 PM,32.0,26.1,79,30.11,3.0,ENE,12.7,-,0.03,Rain,Light Freezing Rain,60,2013-02-21 22:54:00
5:35 PM,32.0,26.6,80,30.05,3.0,East,11.5,21.9,0.05,Rain,Rain,80,2013-02-21 23:35:00
5:54 PM,32.0,27.0,82,30.01,4.0,ENE,16.1,23.0,0.08,Rain,Rain,70,2013-02-21 23:54:00
6:54 PM,33.1,27.0,78,29.95,10.0,East,15.0,27.6,0.03,Rain,Light Rain,90,2013-02-22 00:54:00
7:54 PM,34.0,28.0,79,29.96,9.0,ESE,10.4,24.2,0.01,Rain,Light Rain,110,2013-02-22 01:54:00
8:54 PM,33.1,28.9,85,29.98,5.0,ESE,8.1,17.3,0.09,Rain,Rain,120,2013-02-22 02:54:00
9:24 PM,33.8,30.2,87,29.95,3.0,East,10.4,-,0.12,Rain,Heavy Rain,100,2013-02-22 03:24:00
9:54 PM,33.1,30.0,89,29.94,8.0,East,11.5,-,0.16,Rain,Light Rain,100,2013-02-22 03:54:00
9:59 PM,33.8,30.2,87,29.92,8.0,East,10.4,-,0.00,Rain,Light Rain,100,2013-02-22 03:59:00
10:54 PM,34.0,30.0,85,29.90,9.0,East,12.7,-,0.01,Rain,Light Rain,100,2013-02-22 04:54:00
11:54 PM,34.0,30.9,89,29.87,8.0,ESE,10.4,17.3,0.00,,Overcast,110,2013-02-22 05:54:00